Погода в Ананьеве

Украина / Одесская область     47°43′11″N   29°57′59″E
темп.,
°C
ветер,
м/с
пор.,
м/с
влажн.,
%
обл.,
%
осадки,
мм/ч
давл.,
гПа
погр.,
м
27 ноября, сб
сб2723:00+9ююв101789100 0.1 1002995
02:00+9ю91693100 3.6 1000951
05:00+10ююз81393100 2.3 998618
08:00+8ююз51191100 2.3 999345
11:00+10ююз6874100 0.0 1000376
14:00+12ююз685915 0.0 1000641
17:00+10ююз410695 0.0 1001252
20:00+8юз22795 0.0 100330
28 ноября, вс
вс2823:00+7ююз11815 0.0 100410
02:00+6ююз11820 0.0 100510
05:00+6ююв22826 0.0 100511
08:00+5ююв36869 0.0 1005105
11:00+11ююв59665 0.0 1004349
14:00+13ююв61079100 0.0 1002809
17:00+11ююв5119299 0.0 1002324
20:00+11ю51089100 0.1 1002602
29 ноября, пн
пн2923:00+10ююв51095100 0.0 1001363
02:00+11ююв61091100 0.0 999498
05:00+11ююв61296100 0.0 995578
08:00+10ю7159199 0.0 993646
11:00+13ю8148150 0.8 991913
14:00+15юз71165100 1.0 9891041
17:00+11з71069100 0.8 9921034
20:00+7зсз613701 1.0 996778
30 ноября, вт
вт3023:00+5зсз512725 0.0 998555
02:00+3з513690 0.0 1000522
05:00+2зсз514635 0.0 1001484
08:00+1з3867100 0.0 1002333
11:00+4зсз61354100 0.0 1004814
14:00+5зсз71247100 0.0 10031111
17:00+3сз813605 0.0 1004932
20:00+2зсз714675 0.0 1005669
1 декабря, ср
ср123:000зсз614701 0.0 1006534
02:000зюз47669 0.0 1007234
05:00−1ююз41272100 0.0 1007280
08:00−1юз61268100 0.0 1006339
11:00+3зюз7125065 0.0 1006727
14:00+6з713436 0.0 10061590
17:00+4зсз612555 0.0 1007480
20:00+1з356791 0.0 100979